Temp
80 81 81 83 83 84 84 84 83 83 83 83 83 83 83 83 83 83 83 83 83 83 83 83 83 83 83 82 82 82 82 82 82 83 83 83 83 83 83 83 83 90 83
86 86 82 83 84 83 83 83 83 83 83 83 83 83 83 83 83 83 83 83 83 83 83 83 83 83 84 83 83 82 82 82 82 83 84 84 84 83 83 83 85 86 82
86 87 85 82 83 83 83 83 83 83 84 84 83 83 83 83 83 83 83 83 82 84 84 83 83 84 84 83 83 83 83 83 83 84 84 89 90 84 84 83 84 83 83
88 89 88 82 83 83 83 83 84 84 84 84 83 83 83 83 83 83 83 82 83 84 83 83 84 84 84 84 84 83 83 83 84 84 87 88 89 83 83 83 82 82 82
87 88 87 83 83 83 84 84 84 84 84 83 83 83 83 83 83 84 84 82 83 84 83 84 83 84 84 84 84 83 83 84 83 85 85 86 88 85 84 83 82 82 82
87 89 85 83 84 84 84 84 84 84 84 83 83 83 83 83 83 83 84 83 84 84 84 83 83 83 83 83 83 83 83 83 83 86 85 85 86 83 83 83 83 83 82
88 89 88 83 84 84 84 84 84 84 84 84 84 84 84 84 84 83 84 84 84 83 83 84 83 83 83 83 83 83 83 83 87 86 86 86 86 82 83 83 83 82 82
87 89 88 84 83 84 84 84 84 83 84 83 84 84 84 84 83 83 84 83 84 84 84 83 82 83 83 83 83 83 83 84 88 87 86 88 82 81 84 83 83 83 82
88 88 87 89 86 84 83 84 84 84 84 84 84 83 84 83 83 83 83 84 84 84 84 83 83 83 83 83 83 83 83 83 88 89 88 87 80 81 83 83 83 82 82
86 87 86 86 88 87 88 84 84 84 84 83 83 83 83 84 84 84 83 83 84 84 84 84 83 83 82 82 83 83 83 83 88 88 89 89 80 82 83 82 82 81 82
84 86 88 88 87 86 88 88 84 84 82 84 84 84 85 89 88 86 84 82 84 84 84 84 84 83 83 83 83 83 84 91 89 90 89 80 80 82 83 82 82 82 82
82 84 87 88 87 87 88 86 87 88 89 88 87 86 84 86 85 86 85 82 84 84 85 84 84 84 85 90 90 84 81 88 90 89 89 79 80 82 84 84 82 82 82
83 84 85 85 86 86 86 86 87 88 88 88 84 85 86 85 84 88 86 87 83 82 82 80 87 89 86 82 79 83 78 77 88 91 87 80 80 82 82 82 81 82 81
82 84 85 85 83 84 86 86 87 86 87 87 87 85 84 82 85 83 85 85 84 84 83 84 86 86 86 79 80 78 84 76 78 81 86 80 81 82 81 80 81 82 82
81 83 84 84 82 83 82 85 86 86 87 88 87 87 86 85 84 84 83 84 82 83 84 84 84 84 82 83 84 77 80 83 78 84 86 80 80 81 82 82 80 81 82
83 84 86 84 83 84 82 82 84 85 87 86 87 87 84 85 83 82 83 83 83 84 84 82 82 82 83 84 83 80 81 85 81 83 86 82 80 80 82 81 81 81 80
86 86 85 84 86 82 83 84 85 85 88 87 86 86 84 84 84 82 83 84 85 84 81 82 82 81 84 85 83 85 83 84 86 85 86 86 88 80 80 80 77 78 81
87 84 84 87 87 84 84 84 86 86 86 86 85 86 84 84 83 83 84 81 85 84 84 82 84 84 83 83 83 81 84 85 85 86 86 87 88 89 84 81 79 79 79
86 85 84 85 87 85 83 84 85 85 85 87 86 86 84 84 84 84 85 85 83 84 84 86 84 83 82 82 80 81 81 86 88 90 87 86 87 85 88 83 80 80 81
87 85 84 86 85 83 84 82 85 85 86 88 88 86 83 84 83 84 85 84 84 84 86 86 82 84 82 81 82 81 85 86 88 88 87 87 87 87 87 84 86 86 80
86 84 84 83 83 83 83 83 84 84 85 86 86 83 84 84 83 83 86 85 85 85 82 82 83 81 82 81 81 83 82 86 83 82 86 86 85 86 86 85 85 84 82
85 84 83 83 83 83 85 85 86 84 86 87 85 83 83 83 82 83 83 85 83 84 81 80 80 82 82 80 81 81 78 80 83 84 84 84 82 85 84 84 82 79 80
85 84 83 82 83 83 84 84 83 84 82 82 82 80 81 81 83 82 82 83 81 83 83 80 80 78 81 80 78 80 77 78 80 82 81 82 81 82 82 82 81 81 79
87 87 85 84 82 83 82 83 82 84 83 85 84 83 83 82 83 83 82 81 81 83 80 81 81 80 79 79 81 80 79 79 78 75 79 80 80 79 78 81 80 79 79
89 88 86 84 82 83 82 83 83 83 86 86 84 81 81 82 83 82 82 81 80 84 80 79 79 78 80 79 79 80 78 81 79 79 76 77 80 79 79 79 80 80 80
90 87 87 83 81 82 81 82 82 82 82 82 82 82 82 82 80 81 82 81 80 81 80 80 78 77 76 76 78 77 79 78 79 79 78 75 77 77 78 79 77 78 79
MSLP
1014.85 1015.05 1014.74 1014.81 1014.81 1014.74 1014.83 1014.94 1015.35 1015.64 1015.81 1016.19 1016.27 1016.49 1016.51 1016.71 1016.79 1016.96 1017.24 1017.33 1017.42 1017.49 1017.52 1017.60 1017.63 1017.75 1017.86 1017.99 1018.25 1018.51 1018.53 1018.70 1018.89 1018.95 1019.03 1018.97 1018.95 1019.06 1019.16 1019.19 1019.26 1019.11 1019.67
1014.28 1014.85 1015.17 1015.12 1015.29 1015.40 1015.54 1015.88 1015.89 1016.05 1016.13 1016.50 1016.58 1016.81 1016.89 1017.01 1017.02 1017.14 1017.33 1017.48 1017.62 1017.72 1017.71 1017.66 1017.69 1017.74 1017.82 1018.09 1018.38 1018.51 1018.54 1018.77 1018.97 1019.02 1019.10 1019.24 1019.24 1019.29 1019.45 1019.54 1019.39 1019.60 1019.95
1014.41 1014.74 1015.17 1015.40 1015.51 1015.83 1015.98 1016.05 1016.26 1016.26 1016.48 1016.55 1016.85 1017.00 1017.23 1017.30 1017.29 1017.41 1017.49 1017.65 1017.65 1017.75 1017.74 1017.78 1017.85 1017.91 1018.03 1018.20 1018.38 1018.49 1018.67 1018.86 1018.91 1018.99 1019.18 1018.93 1018.95 1019.47 1019.56 1019.70 1019.71 1019.85 1020.06
1014.31 1014.66 1015.15 1015.61 1015.73 1015.97 1016.05 1016.38 1016.50 1016.57 1016.70 1016.73 1016.97 1017.12 1017.46 1017.40 1017.46 1017.59 1017.66 1017.78 1017.79 1017.78 1017.81 1017.96 1018.01 1018.16 1018.23 1018.37 1018.54 1018.61 1018.70 1018.90 1018.99 1019.17 1019.10 1019.10 1019.06 1019.67 1019.72 1019.87 1020.08 1020.24 1020.37
1014.63 1014.86 1015.26 1015.75 1015.92 1016.19 1016.36 1016.62 1016.62 1016.77 1016.83 1017.05 1017.16 1017.28 1017.54 1017.55 1017.67 1017.75 1017.71 1017.83 1017.86 1017.87 1018.01 1018.10 1018.20 1018.27 1018.40 1018.55 1018.67 1018.81 1018.82 1018.95 1019.13 1019.23 1019.36 1019.40 1019.35 1019.62 1019.87 1020.33 1020.44 1020.59 1020.66
1014.76 1014.92 1015.55 1015.85 1016.11 1016.29 1016.45 1016.82 1016.74 1016.81 1017.09 1017.14 1017.38 1017.45 1017.55 1017.67 1017.81 1017.84 1017.89 1017.90 1017.95 1018.02 1018.17 1018.28 1018.38 1018.39 1018.54 1018.67 1018.79 1018.88 1019.01 1019.15 1019.34 1019.29 1019.44 1019.51 1019.59 1019.75 1020.09 1020.27 1020.20 1020.38 1020.68
1014.77 1015.07 1015.55 1016.03 1016.25 1016.47 1016.77 1016.87 1016.81 1016.90 1017.15 1017.28 1017.50 1017.59 1017.58 1017.74 1017.83 1017.90 1018.00 1018.06 1018.16 1018.22 1018.37 1018.40 1018.44 1018.42 1018.62 1018.81 1018.86 1018.94 1019.06 1019.22 1019.22 1019.40 1019.48 1019.56 1019.69 1020.09 1020.20 1020.27 1020.52 1020.52 1020.62
1014.93 1015.08 1015.57 1016.15 1016.42 1016.60 1016.72 1016.86 1016.90 1017.07 1017.24 1017.43 1017.64 1017.74 1017.69 1017.89 1017.99 1018.08 1018.10 1018.17 1018.20 1018.33 1018.44 1018.59 1018.68 1018.64 1018.72 1018.89 1018.89 1019.02 1019.15 1019.25 1019.25 1019.32 1019.49 1019.54 1019.86 1020.14 1020.23 1020.38 1020.47 1020.61 1020.78
1014.94 1015.15 1015.57 1015.89 1016.33 1016.57 1016.71 1016.82 1017.07 1017.12 1017.35 1017.54 1017.67 1017.71 1017.80 1017.95 1018.07 1018.20 1018.33 1018.34 1018.34 1018.45 1018.49 1018.63 1018.77 1018.81 1018.88 1018.99 1019.07 1019.10 1019.23 1019.35 1019.22 1019.27 1019.37 1019.63 1019.96 1020.09 1020.27 1020.36 1020.52 1020.67 1020.94
1015.15 1015.33 1015.68 1016.00 1016.16 1016.27 1016.49 1016.94 1017.06 1017.37 1017.62 1017.76 1017.82 1017.81 1017.98 1018.04 1018.18 1018.30 1018.42 1018.45 1018.42 1018.45 1018.56 1018.69 1018.77 1018.92 1019.04 1019.11 1019.22 1019.19 1019.26 1019.29 1019.08 1019.06 1019.08 1019.14 1019.74 1019.95 1020.03 1020.31 1020.52 1020.81 1020.86
1015.30 1015.40 1015.51 1015.91 1016.26 1016.47 1016.57 1016.74 1017.23 1017.47 1017.66 1017.75 1017.85 1017.99 1018.01 1017.98 1018.02 1018.18 1018.28 1018.43 1018.46 1018.41 1018.51 1018.53 1018.64 1018.73 1018.96 1019.04 1019.12 1019.19 1019.09 1018.64 1018.89 1018.88 1018.88 1019.25 1019.43 1019.62 1019.87 1020.12 1020.40 1020.78 1020.88
1015.02 1015.37 1015.62 1015.81 1016.09 1016.43 1016.62 1016.93 1017.19 1017.37 1017.36 1017.51 1017.68 1017.86 1018.07 1018.16 1018.26 1018.33 1018.32 1018.43 1018.44 1018.34 1018.36 1018.39 1018.42 1018.55 1018.68 1018.40 1018.52 1018.92 1019.07 1018.71 1018.66 1018.75 1018.59 1019.27 1019.25 1019.33 1019.55 1019.88 1020.24 1020.51 1020.81
1014.81 1015.23 1015.53 1015.90 1016.30 1016.49 1016.62 1016.93 1017.12 1017.19 1017.43 1017.60 1017.87 1018.01 1018.08 1018.17 1018.14 1018.15 1018.20 1018.17 1018.47 1018.42 1018.26 1018.33 1018.10 1018.09 1018.33 1018.68 1018.73 1018.73 1018.92 1018.89 1018.58 1018.37 1018.52 1019.04 1019.14 1019.12 1019.38 1019.77 1020.21 1020.35 1020.58
1014.92 1015.10 1015.32 1015.63 1016.26 1016.51 1016.64 1016.89 1016.95 1017.12 1017.36 1017.58 1017.70 1018.01 1018.11 1018.20 1018.14 1018.22 1018.13 1018.23 1018.29 1018.34 1018.28 1018.16 1018.00 1017.96 1018.07 1018.54 1018.54 1018.68 1018.46 1018.70 1018.83 1018.88 1018.51 1018.97 1018.91 1018.98 1019.38 1020.04 1020.24 1020.32 1020.45
1014.79 1014.92 1015.18 1015.55 1016.03 1016.40 1016.86 1016.81 1016.93 1017.10 1017.19 1017.32 1017.66 1017.82 1017.95 1017.95 1018.02 1018.12 1018.14 1018.17 1018.34 1018.34 1018.23 1018.04 1018.02 1018.02 1018.09 1018.09 1018.08 1018.43 1018.29 1017.99 1018.44 1018.38 1018.38 1018.62 1018.66 1018.88 1019.24 1019.76 1020.15 1020.18 1020.15
1014.36 1014.60 1015.07 1015.54 1015.78 1016.14 1016.50 1016.75 1016.85 1017.05 1017.17 1017.36 1017.49 1017.57 1017.81 1017.83 1018.02 1018.22 1018.17 1018.19 1018.12 1018.06 1018.04 1018.03 1017.92 1017.86 1017.80 1017.76 1017.65 1017.78 1017.80 1017.49 1017.99 1018.06 1017.97 1018.17 1018.43 1018.61 1018.81 1019.39 1019.79 1019.84 1019.86
1013.90 1014.42 1014.89 1015.37 1015.61 1016.08 1016.10 1016.42 1016.63 1016.86 1016.98 1017.17 1017.32 1017.42 1017.60 1017.77 1017.85 1018.03 1017.97 1017.84 1017.80 1017.97 1018.08 1017.91 1017.85 1017.83 1017.65 1017.44 1017.49 1017.17 1017.18 1017.18 1017.27 1017.52 1017.67 1017.79 1017.89 1018.31 1018.39 1018.72 1019.37 1019.58 1019.51
1013.53 1014.01 1014.73 1015.05 1015.33 1015.85 1016.00 1016.20 1016.42 1016.64 1016.85 1016.99 1017.14 1017.21 1017.39 1017.58 1017.76 1017.85 1017.77 1017.66 1017.75 1017.80 1017.78 1017.68 1017.63 1017.61 1017.61 1017.40 1017.25 1017.08 1016.83 1016.87 1017.05 1017.17 1017.25 1017.41 1017.42 1017.45 1017.80 1018.08 1018.48 1018.72 1019.02
1013.11 1013.68 1014.13 1014.70 1014.98 1015.44 1015.94 1016.22 1016.40 1016.53 1016.61 1016.58 1016.75 1016.86 1017.06 1017.27 1017.44 1017.56 1017.59 1017.55 1017.73 1017.68 1017.57 1017.55 1017.48 1017.55 1017.49 1017.39 1017.21 1016.92 1016.97 1016.81 1016.65 1016.58 1016.76 1016.99 1017.04 1017.22 1017.19 1017.48 1017.87 1018.04 1018.27
1012.83 1013.50 1014.01 1014.36 1014.79 1015.36 1015.84 1016.15 1016.13 1016.32 1016.28 1016.32 1016.29 1016.58 1016.91 1016.92 1017.16 1017.46 1017.53 1017.55 1017.54 1017.54 1017.54 1017.58 1017.65 1017.60 1017.62 1017.59 1017.27 1017.06 1016.81 1016.72 1016.54 1016.76 1016.79 1016.89 1016.96 1017.00 1017.01 1017.23 1017.20 1017.29 1017.70
1012.50 1013.06 1013.61 1014.13 1014.46 1015.10 1015.45 1015.72 1015.90 1015.83 1016.08 1016.21 1016.23 1016.59 1016.77 1016.79 1016.92 1017.27 1017.34 1017.40 1017.43 1017.49 1017.67 1017.81 1017.79 1017.73 1017.50 1017.71 1017.34 1016.97 1016.97 1016.86 1017.18 1017.28 1016.95 1016.85 1016.96 1016.93 1017.07 1017.23 1017.27 1017.25 1017.19
1011.76 1012.37 1013.10 1013.61 1014.12 1014.58 1015.02 1015.36 1015.57 1015.81 1015.90 1015.94 1016.29 1016.64 1016.82 1016.91 1016.99 1016.98 1017.23 1017.44 1017.61 1017.61 1017.83 1017.90 1017.95 1017.67 1017.69 1017.86 1017.32 1016.99 1016.75 1017.16 1017.25 1017.41 1017.38 1017.32 1017.42 1017.29 1017.40 1017.52 1017.60 1017.51 1017.30
1011.09 1011.56 1012.10 1012.71 1013.44 1014.16 1014.62 1015.32 1015.74 1015.94 1016.10 1016.14 1016.40 1016.78 1016.79 1016.94 1016.93 1016.99 1017.15 1017.39 1017.62 1017.75 1017.77 1017.97 1017.99 1017.95 1017.61 1017.85 1017.91 1017.40 1016.97 1016.54 1017.07 1017.70 1017.76 1017.89 1018.00 1017.92 1017.91 1017.94 1017.96 1017.74 1017.55
1009.92 1010.92 1011.55 1012.34 1012.99 1013.62 1014.34 1014.73 1015.01 1015.20 1015.36 1015.55 1015.82 1016.25 1016.39 1016.51 1016.58 1016.86 1017.15 1017.43 1017.54 1017.52 1017.84 1017.96 1017.98 1018.03 1018.00 1017.77 1017.87 1017.87 1017.79 1017.62 1017.11 1017.49 1018.14 1018.22 1018.33 1018.36 1018.44 1018.21 1018.21 1018.12 1017.96
1009.53 1010.15 1010.81 1011.81 1012.65 1013.13 1013.79 1014.20 1014.50 1014.88 1015.08 1015.39 1015.71 1015.95 1016.14 1016.20 1016.33 1016.81 1017.21 1017.44 1017.53 1017.47 1017.98 1018.13 1018.12 1018.13 1018.17 1018.13 1018.09 1018.00 1017.99 1017.81 1017.76 1017.38 1017.38 1017.97 1018.10 1018.64 1018.74 1018.60 1018.53 1018.31 1018.17
1009.01 1009.90 1010.62 1011.43 1012.09 1012.78 1013.32 1013.82 1014.14 1014.42 1014.84 1015.30 1015.33 1015.37 1015.67 1016.00 1016.39 1016.58 1016.96 1017.47 1017.75 1017.81 1018.19 1018.37 1018.56 1018.62 1018.70 1018.77 1018.57 1018.42 1018.16 1017.93 1017.82 1017.75 1017.64 1017.95 1017.96 1018.64 1018.93 1019.01 1019.05 1018.84 1018.58
Wind_Speed
8 8 12 12 13 15 15 15 15 15 16 15 15 14 14 12 11 10 10 9 8 6 6 5 4 3 2 2 3 6 7 8 10 10 9 8 11 13 11 12 10 13 14
14 12 12 14 15 15 16 16 16 15 16 14 13 12 11 10 10 10 9 8 8 8 8 8 5 3 4 5 5 5 5 7 9 10 10 9 9 12 11 10 7 13 13
14 13 13 12 14 15 14 15 15 15 14 12 11 10 9 8 9 8 7 6 7 8 9 8 6 7 7 7 5 7 7 8 9 9 9 6 8 8 10 10 11 13 14
14 13 14 12 13 14 14 13 12 13 12 10 8 8 7 9 8 7 5 5 6 7 8 9 8 8 8 8 8 9 9 8 9 10 5 6 6 6 9 10 9 11 13
14 13 15 14 13 14 14 12 13 11 11 9 7 7 6 7 6 7 5 6 6 8 7 8 7 9 8 7 8 8 8 8 10 6 6 3 1 7 8 9 10 10 9
14 13 15 15 14 12 12 12 12 10 8 9 6 5 4 5 7 6 6 6 7 7 8 6 7 8 8 7 6 7 6 7 6 6 5 5 1 9 7 9 8 9 9
14 12 14 13 12 12 12 10 10 9 8 8 7 5 5 5 7 5 6 5 6 6 5 5 4 6 8 7 5 5 5 4 3 4 3 3 3 6 9 9 8 9 8
14 12 13 12 12 13 12 10 9 9 7 6 6 5 4 4 4 4 4 4 5 5 4 4 4 4 5 5 4 4 3 2 2 2 3 3 4 5 8 9 11 11 10
12 11 10 12 12 11 10 9 9 8 7 6 6 4 4 3 3 3 2 2 2 2 3 3 3 2 1 3 3 2 1 2 1 2 4 5 7 8 8 8 8 10 11
11 11 10 8 8 8 9 9 7 7 7 6 4 3 3 3 3 2 1 1 1 1 1 2 2 3 3 4 3 3 3 4 2 3 3 4 8 10 9 8 9 10 11
9 10 9 10 9 7 6 6 7 6 6 8 6 5 4 2 2 2 1 2 4 4 4 4 3 3 4 6 6 6 6 4 3 4 3 2 9 11 10 9 10 11 11
13 12 10 9 9 8 5 6 6 4 4 3 2 2 1 2 1 5 5 5 6 7 6 6 5 6 7 4 3 6 2 6 5 4 4 4 10 10 11 9 10 11 12
13 11 12 11 9 9 7 5 4 4 3 3 4 4 3 2 2 3 3 3 3 5 3 4 4 4 5 3 3 5 3 3 6 4 4 7 9 10 11 8 9 11 11
13 13 13 13 10 10 6 6 5 4 4 4 4 5 3 2 2 3 3 4 4 4 5 5 5 6 7 4 4 6 7 4 3 4 4 8 10 10 7 7 10 11 11
14 14 14 13 11 9 9 6 6 5 5 5 4 5 4 4 3 3 3 4 4 4 4 6 4 5 6 6 6 6 9 7 5 4 5 7 11 10 7 9 11 11 11
14 14 13 13 12 11 10 9 6 5 5 4 4 5 6 4 3 4 4 4 4 4 4 4 4 4 5 5 6 6 9 8 7 8 5 5 9 9 10 8 10 12 13
13 13 14 13 13 12 12 9 7 5 5 5 5 6 6 6 5 4 4 4 3 3 5 4 4 4 4 3 6 7 6 7 6 7 6 4 5 9 10 19 16 19 17
13 14 13 11 12 12 10 8 6 5 4 5 5 6 7 6 5 4 4 3 2 3 3 2 2 2 3 3 5 5 3 4 6 6 6 5 4 5 7 14 22 23 19
15 14 14 14 13 13 10 7 7 6 5 5 5 5 5 5 5 3 3 2 3 2 2 1 1 3 3 4 5 1 3 2 3 3 5 5 5 4 4 5 12 19 21
15 14 13 12 13 11 7 6 5 5 5 4 3 4 5 4 4 2 2 3 2 2 2 2 3 2 3 4 4 2 2 2 2 0 1 0 1 2 3 4 4 5 13
14 15 14 14 13 10 8 7 7 7 5 4 3 4 5 4 4 3 2 2 1 1 3 2 2 3 3 4 3 4 6 7 7 5 3 4 4 5 6 5 4 5 5
17 16 15 15 14 12 8 7 5 5 4 3 2 3 4 4 3 3 2 1 1 3 3 3 2 1 2 5 3 1 4 5 5 7 6 7 8 6 6 7 7 7 4
17 18 17 16 15 13 12 6 4 3 2 3 4 4 4 3 2 4 4 3 3 2 2 3 3 2 1 3 6 3 2 1 4 5 8 8 8 7 6 7 8 9 9
20 16 16 15 15 14 13 10 10 8 7 5 5 5 4 5 5 5 5 5 4 3 4 4 4 4 2 1 0 3 3 3 2 4 4 6 8 8 8 7 8 9 10
16 17 17 15 14 13 13 12 11 10 6 4 5 7 5 5 6 6 6 6 6 3 4 4 4 4 4 3 2 1 2 2 2 1 3 4 4 6 6 7 7 7 10
14 14 14 15 14 14 14 15 14 12 9 6 6 7 7 6 6 7 7 5 4 4 4 4 5 6 5 4 4 3 2 2 2 1 1 2 2 4 6 7 8 8 8
Wind_Direction
138 138 122 112 106 107 107 109 117 124 118 117 118 119 118 118 118 112 109 111 109 115 115 119 124 142 153 126 127 102 113 105 118 107 101 103 114 109 111 112 133 109 113
136 138 133 127 121 115 116 123 123 124 120 122 119 118 118 123 117 109 120 115 112 117 109 101 99 137 163 137 128 132 138 111 127 122 119 111 104 120 120 120 130 109 117
138 132 136 134 127 125 124 121 126 127 128 124 120 116 126 128 117 115 112 108 129 113 104 104 104 112 128 127 124 124 126 122 124 125 116 121 115 124 131 131 129 134 127
137 137 138 137 135 136 127 131 133 133 130 120 127 121 126 128 120 111 106 113 116 110 101 108 110 107 122 124 115 118 127 126 127 120 135 122 125 122 129 132 131 127 129
142 141 137 141 138 142 139 140 140 137 129 132 127 120 133 121 114 107 116 112 113 104 98 116 111 117 115 111 111 111 123 131 113 138 122 110 150 124 136 134 141 138 151
147 146 136 142 147 146 143 153 142 135 143 133 134 149 145 114 125 110 119 98 104 112 114 100 118 118 112 108 109 114 126 124 126 127 141 116 105 131 147 142 147 139 145
150 151 146 150 155 157 162 154 146 150 154 147 155 159 131 131 116 135 110 109 99 86 107 117 114 112 119 119 117 108 104 159 111 136 172 159 162 165 162 168 164 157 159
156 156 151 155 165 172 164 161 152 151 156 160 168 176 139 132 125 130 127 126 125 120 107 100 99 102 126 128 133 120 102 64 175 265 231 209 162 211 191 186 178 174 170
159 159 160 166 175 162 174 158 168 159 169 179 176 173 145 139 161 148 137 129 108 110 131 139 123 138 136 174 175 166 166 125 181 210 231 220 190 205 210 197 187 182 172
164 164 169 174 171 178 164 173 165 175 179 185 178 153 174 194 205 173 179 194 247 277 225 223 189 176 196 239 247 242 241 244 242 257 248 212 196 202 215 213 199 190 187
176 176 179 176 180 177 177 176 188 202 199 187 187 201 209 253 257 273 358 273 288 279 266 255 245 249 234 244 259 257 266 255 252 263 256 192 206 214 217 201 199 199 199
183 184 184 187 179 182 188 195 191 196 209 211 187 211 206 240 301 304 305 307 281 281 274 276 273 263 254 279 249 255 282 280 251 254 287 203 218 219 217 220 200 201 196
186 186 190 189 189 195 200 195 197 197 206 200 220 223 244 280 298 292 306 297 307 311 298 324 279 259 259 256 291 274 272 261 272 269 256 233 225 232 225 234 216 215 207
193 196 193 192 191 201 200 202 205 206 207 214 214 229 233 250 269 285 292 308 301 314 304 272 264 277 275 319 253 270 262 236 253 249 285 252 245 240 230 272 271 238 229
201 200 202 195 193 198 209 211 218 216 211 216 223 223 221 238 248 258 278 293 297 300 290 285 280 284 279 267 261 251 254 251 249 247 264 260 254 237 210 224 238 262 254
204 206 203 207 198 196 210 216 212 217 219 226 227 234 227 241 247 262 278 289 276 285 272 278 281 281 285 281 277 252 250 247 237 249 254 254 262 246 211 202 263 263 262
204 205 209 209 205 208 207 215 220 216 217 234 238 241 238 233 238 252 265 281 272 273 260 263 257 240 264 268 274 278 266 245 239 238 250 258 247 232 229 204 204 247 250
205 204 208 207 206 211 216 212 221 225 221 231 246 252 247 242 242 238 271 281 315 259 250 250 329 301 304 287 298 271 278 227 230 244 258 263 257 270 213 205 207 215 227
207 204 204 203 208 211 211 217 225 236 232 244 243 249 244 222 201 226 281 286 288 243 275 269 326 332 325 322 308 277 266 244 226 233 256 269 284 261 272 220 227 222 219
210 210 208 201 209 204 199 204 220 236 236 232 231 214 198 187 168 253 262 275 296 277 304 304 325 0 351 336 328 42 15 159 199 102 16 318 295 333 318 307 282 246 244
209 207 207 202 203 195 193 199 216 221 203 221 236 210 190 177 178 208 228 271 300 353 40 9 328 9 26 360 252 106 82 85 75 56 52 57 49 44 33 18 341 315 309
209 209 204 209 202 201 204 203 211 200 212 213 207 199 184 192 213 194 215 219 127 99 61 34 352 285 41 22 328 225 146 136 95 60 64 67 60 60 52 42 21 10 355
211 207 205 203 200 202 202 185 166 153 142 177 178 182 189 208 193 193 188 185 137 125 99 68 50 29 344 68 34 332 218 220 145 54 66 71 59 53 44 35 28 23 17
215 207 208 203 201 198 191 195 198 214 222 212 191 186 174 200 186 177 162 168 157 137 118 105 82 55 356 352 256 61 46 353 271 159 97 90 74 55 43 40 34 32 25
207 205 206 197 197 193 192 201 196 208 214 188 172 159 166 160 162 156 158 156 144 147 117 109 100 69 69 32 8 329 50 105 74 308 163 153 119 60 49 40 34 28 25
204 203 198 193 193 190 190 195 198 196 194 186 179 172 167 162 158 162 153 147 142 130 120 95 80 66 52 48 40 32 354 337 24 356 190 194 316 82 50 42 30 21 16